Regional Weather Roundup
Issued by NWS

Home | Current Version | Previous Version | Graphics & Text | Print | Product List | Glossary On
Versions: 1 2 3 4 5 6 7 8 9 10 11 12 13 14 15 16 17 18 19 20 21 22 23 24 25 26 27 28 29 30 31 32 33 34 35 36 37 38 39 40 41 42 43 44 45 46 47 48 49 50
000
ASUS43 KFSD 220410
RWRSD

WEATHER ROUNDUP FOR SOUTH DAKOTA
NATIONAL WEATHER SERVICE SIOUX FALLS SD
1000 PM CST TUE FEB 21 2017

NOTE: "FAIR" INDICATES FEW OR NO CLOUDS BELOW 12,000 FEET WITH NO
SIGNIFICANT WEATHER AND/OR OBSTRUCTIONS TO VISIBILITY.


SDZ001>005-009-010-012>017-220500-
NORTHWEST AND NORTH CENTRAL SOUTH DAKOTA

CITY           SKY/WX    TMP DP  RH WIND       PRES   REMARKS
BUFFALO          N/A     41  36  82 SW5       29.63R
FAITH            N/A     47  37  68 NE10      29.70S
MOBRIDGE       CLOUDY    45  34  65 N14G20    29.67R
$$

SDZ012>016-024>037-041>051-057-063-072>074-220500-
SOUTHWEST AND SOUTH CENTRAL SOUTH DAKOTA

CITY           SKY/WX    TMP DP  RH WIND       PRES   REMARKS
RAPID CTY ARPT MOCLDY    46  35  65 SW3       29.75R
PIERRE         CLOUDY    53  41  63 N15       29.66R
CUSTER         RAIN      41  35  79 SW13G20   29.81R
ELLSWORTH AFB  PTCLDY    47  36  65 S7        29.72S
PHILIP         CLEAR     53  35  50 W10       29.69R
PINE RIDGE     CLEAR     43  30  60 CALM      29.75R
SPEARFISH      CLOUDY    50  34  53 W9        29.73R
WINNER         FAIR      64  31  28 W18G25    29.66F
$$

SDZ004>011-016>023-039-040-220500-
NORTHEAST SOUTH DAKOTA

CITY           SKY/WX    TMP DP  RH WIND       PRES   REMARKS
ABERDEEN       PTCLDY    41  35  79 N10       29.65R
WATERTOWN      MOCLDY    53  37  54 S8G29     29.63F
BROOKINGS      PTCLDY    48  39  71 SE5       29.66F
SISSETON         N/A     36  36 100 CALM      29.65F
$$

SDZ017-020-022-023-036>040-048>070-220500-
SOUTHEAST SOUTH DAKOTA

CITY           SKY/WX    TMP DP  RH WIND       PRES   REMARKS
SIOUX FALLS    PTCLDY    42  37  82 CALM      29.67F
HURON          MOCLDY    48  40  73 E10       29.64R
CHAMBERLAIN    CLEAR     50  36  58 SW9       29.63S
MITCHELL       CLEAR     51  38  60 S12       29.63F
YANKTON        CLEAR     55  36  47 S3        29.67S
$$

ABBREVIATIONS USED IN REMARKS
   TC - TEMPERATURE IN CELSIUS
  WCI - WIND CHILL INDEX
   HX - HEAT INDEX
  VSB - VISIBILITY





USA.gov is the U.S. government's official web portal to all federal, state and local government web resources and services.